#timestamp,LO_Frequency,Hit,StdDev 
1680660015.0,286047004.8,N
1680660015.9,286047004.8,N
1680660035.8,286047004.8,N
1680660055.6,286047005.4,N
1680660075.4,286047005.6,N
1680660095.3,286047003.8,N
1680660115.1,286047005.3,N
1680660135.8,286047005.6,N
1680660155.7,286047003.9,N
1680660175.5,286047001.4,N
1680660195.4,286047004.4,N
1680660215.2,286047001.3,N
1680660235.0,286047004.3,N
1680660235.9,286047004.3,N
1680660255.8,286047002.6,N
1680660275.6,286046999.9,N
1680660295.4,286047000.9,N
1680660315.3,286047000.6,N
1680660335.1,286047000.7,N
1680660355.9,286047001.0,N
1680660375.7,286047000.4,N
1680660395.5,286047001.0,N
1680660415.4,286047000.0,N
1680660435.2,286046999.9,N
1680660455.0,286046999.8,N
1680660455.9,286046999.8,N
1680660475.8,286047000.0,N
1680660495.6,286047000.1,N
1680660515.4,286047002.1,N
1680660535.3,286047002.7,N
1680660555.1,286047003.9,N
1680660575.9,286047004.2,N
1680660595.7,286047003.1,N
1680660615.5,286047007.6,Y
1680660635.4,286047003.6,P
1680660655.2,286047006.8,P
1680660675.0,286047010.6,P
1680660676.0,286047010.6,Y
1680660695.8,286047003.7,P
1680660715.6,286047006.0,P
1680660735.5,286047003.0,N
1680660755.3,286047006.9,Y
1680660775.1,286047000.9,P
1680660795.9,286047001.8,N
1680660815.7,286047005.5,P
1680660835.6,286047006.2,Y
1680660855.4,286047003.9,P
1680660875.2,286047003.7,P
1680660895.1,286047002.3,P
1680660896.0,286047002.3,Y
1680660915.8,286046995.2,P
1680660935.6,286046995.3,N
1680660955.5,286046993.6,N
1680660975.3,286046996.0,N
1680660995.2,286046992.0,N
1680661015.9,286046990.9,N
1680661035.7,286046988.6,Y
1680661055.6,286046992.2,P
1680661075.4,286046992.6,P
1680661095.2,286046992.1,P
1680661115.1,286046992.1,Y
1680661116.0,286046992.1,P
1680661135.8,286046999.7,N
1680661155.7,286047001.0,N
1680661175.5,286047000.4,N
1680661195.3,286047002.5,N
1680661215.2,286047002.0,N
1680661235.0,286047001.6,N
1680661235.9,286047001.6,N
1680661255.8,286047002.4,N
1680661275.6,286047002.3,N
1680661295.4,286047002.2,N
1680661315.3,286047004.4,N
1680661335.1,286047007.6,N
1680661355.8,286047010.6,N
1680661375.7,286047012.1,N
1680661395.5,286047012.7,N
1680661415.3,286047012.9,N
1680661435.2,286047013.8,N
1680661455.0,286047013.3,N
1680661455.9,286047013.3,N
1680661475.8,286047019.5,Y
1680661495.6,286047015.6,P
1680661515.4,286047014.6,N
1680661535.3,286047016.3,P
1680661555.1,286047018.3,Y
1680661575.9,286047001.5,P
1680661595.7,286047001.1,N
1680661615.5,286046999.4,N
1680661635.4,286046997.2,N
1680661655.2,286046996.5,N
1680661675.0,286046995.0,N
1680661675.9,286046995.0,N
1680661695.8,286046997.4,N
1680661715.6,286046995.7,N
1680661735.5,286046995.6,N
1680661755.3,286046996.4,N
1680661775.1,286046995.7,N
1680661795.9,286046997.5,N
1680661815.7,286047005.5,N
1680661835.6,286047003.1,N
1680661855.4,286047006.9,N
1680661875.2,286047006.5,N
1680661895.1,286047008.0,N
1680661896.0,286047008.0,N
1680661915.8,286047008.1,N
1680661935.6,286047010.2,N
1680661955.5,286047010.4,N
1680661975.3,286047009.5,N
1680661995.2,286047015.2,N
1680662015.9,286047022.4,Y
1680662035.7,286047019.1,P
1680662055.6,286047023.5,N
1680662075.4,286047028.0,P
1680662095.2,286047027.0,N
1680662115.1,286047025.6,N
1680662116.0,286047025.6,N
1680662135.8,286047026.0,Y
1680662155.7,286047037.5,P
1680662175.5,286046999.1,N
1680662195.3,286047000.6,N
1680662215.2,286047000.3,N
1680662235.0,286047001.4,N
1680662235.9,286047001.4,N
1680662255.7,286047003.9,N
1680662275.6,286047004.9,N
1680662295.4,286047007.1,N
1680662315.3,286047002.9,N
1680662335.1,286047004.0,N
1680662355.8,286047004.0,N
1680662375.7,286047003.8,N
1680662395.5,286047002.1,N
1680662415.4,286047004.9,N
1680662435.2,286047002.9,N
1680662455.0,286047005.7,N
1680662455.9,286047005.7,N
1680662475.8,286047001.7,N
1680662495.6,286046999.9,N
1680662515.4,286047004.2,N
1680662535.3,286047003.5,N
1680662555.1,286047008.4,N
1680662575.9,286047012.0,N
1680662595.7,286047014.8,N
1680662615.5,286047018.6,N
1680662635.4,286047020.1,N
1680662655.2,286047017.2,N
1680662675.0,286047013.8,N
1680662675.9,286047013.8,N
1680662695.8,286047012.1,N
1680662715.6,286047005.2,N
1680662735.5,286047003.1,N
1680662755.3,286047004.3,N
1680662775.1,286047003.1,N
1680662795.9,286047005.9,N
1680662815.7,286047003.1,N
1680662835.6,286047007.3,N
1680662855.4,286047004.7,N
1680662875.2,286047004.8,N
1680662895.1,286047005.9,N
1680662896.0,286047005.9,N
1680662915.8,286047003.2,N
1680662935.6,286047003.6,N
1680662955.5,286047002.5,N
1680662975.3,286047001.8,N
1680662995.1,286047007.4,N
1680663015.9,286047003.2,N
1680663035.7,286047002.1,N
1680663055.6,286047000.7,N
1680663075.4,286046999.1,N
1680663095.2,286046995.8,N
1680663115.1,286046992.6,N
1680663116.0,286046992.6,N
1680663135.8,286046990.1,N
1680663155.6,286046991.6,N
1680663175.5,286046986.9,N
1680663195.3,286046987.0,N
1680663215.2,286046987.0,N
1680663235.9,286046990.0,N
1680663255.7,286046988.3,N
1680663275.6,286046986.4,N
1680663295.4,286046984.1,N
1680663315.2,286046984.5,N
1680663335.1,286046983.1,N
1680663336.0,286046983.1,N
1680663355.8,286046984.8,N
1680663375.7,286046984.4,N
1680663395.5,286046984.0,N
1680663415.3,286046985.1,N
1680663435.2,286046982.6,N
1680663455.0,286046980.9,N
1680663455.9,286046980.9,N
1680663475.7,286046982.7,N
1680663495.6,286046983.6,N
1680663515.4,286046983.0,N
1680663535.3,286046984.5,N
1680663555.1,286046980.9,Y
1680663575.8,286046991.7,P
1680663595.7,286046994.5,P
